Other Public Products
Issued by NWS Grand Forks, ND

Home | Current Version | Previous Version | Graphics & Text | Print | Product List | Glossary On
Versions: 1 2 3 4 5 6 7 8 9 10 11 12 13 14 15 16 17 18 19 20 21 22 23 24 25 26 27 28 29 30 31 32 33 34 35 36 37 38 39 40 41 42 43 44 45 46 47 48 49 50
000
FPUS83 KFGF 280810
OPUFGF
PRAIRIE TO PINES WEATHER ROUNDUP
NATIONAL WEATHER SERVICE EASTERN NORTH DAKOTA/GRAND FORKS ND
200 AM CST WED JAN 28 2015

 **SATELLITE DATA USED TO AUGMENT SKY COVER AT AUTOMATED STATIONS**
 *****  WEATHER ACROSS EASTERN NORTH DAKOTA  *****

CITY           SKY/WX    TMP DP  RH WIND       PRES   REMARKS
GRAND FORKS    CLOUDY    34  32  92 S12       29.85F
GRAND FORKS AF CLOUDY    33  32  96 S13       29.85F FOG     WCI  23
GRAND CITY NWS NOT AVBL
BUXTON         NOT AVBL
DEVILS LAKE    CLOUDY    34  30  86 S9        29.77F VSB 1/2
FARGO          CLOUDY    35  32  88 S17G29    29.86F WCI  25
WAHPETON ARPT  CLOUDY    32  30  93 SE15G21   29.89F WCI  22
$$

 *****  WEATHER ACROSS CENTRAL AND WESTERN NORTH DAKOTA  *****

CITY           SKY/WX    TMP DP  RH WIND       PRES   REMARKS
JAMESTOWN      FOG       33  32  96 S12       29.77F VSB 1/4 WCI  24
BISMARCK       PTCLDY    30  29  96 CALM      29.75F
MINOT          MOCLDY    30  28  92 W5        29.74F
MINOT AFB      MOCLDY    29  29 100 NW6       29.75F WCI  23
GARRISON         N/A     30  29  96 N6        29.73F WCI  24
WILLISTON      CLOUDY    32  31  96 CALM      29.74S
DICKINSON      CLEAR     32  27  81 W3        29.73F
HETTINGER      PTCLDY    28  25  88 W3        29.77F
$$

 *****  OTHER OBSERVATIONS NORTHEAST NORTH DAKOTA  *****

CITY           SKY/WX    TMP DP  RH WIND       PRES   REMARKS
WALHALLA       FOG       32  32 100 SE7       29.85S VSB 1/2
LANGDON        FOG       32  30  93 SE10      29.79F VSB 1/4 WCI  24
CAVALIER       FOG       32  32 100 S8        29.84F VSB 1/2 WCI  25
GRAFTON        NOT AVBL
CANDO          FOG       32  32 100 SE9       29.78F VSB 1/4 WCI  24
FORT TOTTEN      N/A     32  32 100 S8        29.95  WCI  25
ROLLA          FOG       32  32 100 SE7       29.77F VSB<1/4
RUGBY          FOG       27  27 100 E9        29.75F VSB<1/4 WCI  17
 ***** THE ABOVE OBSERVATIONS ARE NON NWS ARE NOT QUALITY
        CONTROLLED AND MAY MIS-REPORT RAIN FOR SNOW...
$$

 *****  OTHER OBSERVATIONS SOUTHEAST NORTH DAKOTA *****

CITY           SKY/WX    TMP DP  RH WIND       PRES   REMARKS
COOPERSTOWN    NOT AVBL
VALLEY CITY    FOG       32  32 100 S13G18    29.79F VSB 1/4 WCI  22
OAKES            N/A     28  28 100 E7        29.81F WCI  21
GWINNER        CLOUDY    32  32 100 CALM      29.84F VSB 1/4
SHEYENNE NWR     N/A     33  32  96 S15       29.95  WCI  23
BUFFALO        NOT AVBL
WYNDMERE         N/A     34  34 100 S12         N/A
 ***** THE ABOVE OBSERVATIONS ARE NON NWS ARE NOT QUALITY
       CONTROLLED AND MAY MIS-REPORT RAIN FOR SNOW...
$$

  *****  WEATHER ACROSS NORTHERN MINNESOTA  *****

CITY           SKY/WX    TMP DP  RH WIND       PRES   REMARKS
FLAG ISLAND    CLOUDY    27  25  93 SE12      29.94S WCI  16
WARROAD        CLOUDY    28  25  86 SE7       29.93F WCI  21
ROSEAU         CLOUDY    30  25  80 SE7       29.91F WCI  23
HALLOCK        CLOUDY    32  30  93 SE13      29.87F FOG     WCI  22
THF RVR FALLS  CLOUDY    30  28  93 SE10      29.89F WCI  21
HALSTAD          N/A     35  32  90 S20         N/A  WCI  23
FOSSTON        CLOUDY    30  28  93 SE8       29.90F WCI  23
BAUDETTE       CLOUDY    27  22  81 SE5       29.94F WCI  22
WASKISH        MOCLDY    28  27  93 SE5       29.94F WCI  23
CROOKSTON      CLOUDY    34  30  86 S15       29.88F WCI  24
$$
  *****  WEATHER ACROSS CENTRAL AND WEST MINNESOTA  *****

CITY           SKY/WX    TMP DP  RH WIND       PRES   REMARKS
BEMIDJI        CLOUDY    30  27  88 S9        29.94S WCI  21
PARK RAPIDS    CLOUDY    31  28  89 S13       29.93F WCI  21
WADENA         CLOUDY    30  28  93 SE13      29.95S WCI  20
DETROIT LAKES  CLOUDY    32  32 100 SE16      29.90F WCI  21
MOORHEAD       CLOUDY    36  36 100 S18       29.88F
FERGUS FALLS   PTCLDY    34  30  86 SE17      29.93F WCI  23
ELBOW LAKE     PTSUNNY   32  31  95 SE18G25   29.91F WCI  20
MORRIS MN      MOCLDY    32  30  93 SE21      29.91F FOG     WCI  20
STAPLES        CLOUDY    30  28  93 SE12      29.97F WCI  21
WHEATON        MOCLDY    30  28  93 SE16G22   29.91F WCI  19
$$
  *****  WEATHER ELSEWHERE ACROSS MINNESOTA  *****

CITY           SKY/WX    TMP DP  RH WIND       PRES   REMARKS
DULUTH         CLOUDY    25  19  78 S10       30.04F WCI  15
INTRNTL FALLS  CLOUDY    27  23  85 S3        29.98F
ELY            CLOUDY    27  23  86 S5        30.03F WCI  21
CLOQUET        CLOUDY    27  21  80 SE6       30.05S WCI  20
BRAINERD       CLOUDY    30  26  85 S10       30.00F WCI  21
HIBBING        CLOUDY    27  22  81 S8        30.01F WCI  19
ALEXANDRIA     CLOUDY    32  29  88 SE17      29.95F WCI  21
SAINT CLOUD    CLOUDY    31  28  89 SE12      30.02F WCI  22
MINNEAPOLIS    CLOUDY    30  25  81 SE12      30.09F WCI  20
$$

  *****  WEATHER ACROSS SOUTH DAKOTA  *****

CITY           SKY/WX    TMP DP  RH WIND       PRES   REMARKS
SIOUX FALLS    PTCLDY    35  30  82 S13       29.90F
BROOKINGS      NOT AVBL
WATERTOWN      CLEAR     33  30  88 S13       29.83F WCI  24
HURON          PTCLDY    35  31  85 SE13      29.80F
SISSETON         N/A     32  32 100 S16       29.86F WCI  21
ABERDEEN       MOCLDY    32  30  92 S6        29.80F
MITCHELL       MOCLDY    36  31  82 SE14      29.83F
PIERRE         PTCLDY    35  32  88 E3        29.73F
MOBRIDGE       PTCLDY    34  32  92 SE7       29.72F
RAPID CITY     PTCLDY    51  27  39 NW13      29.77F
$$

  *****  SOME WEATHER IN NEARBY STATES *****

CITY           SKY/WX    TMP DP  RH WIND       PRES   REMARKS
GLASGOW MT     PTCLDY    37  32  82 W6        29.76S
GREAT FALLS MT CLOUDY    46  30  53 SW10      29.91R
CHEYENNE WY    MOCLDY    48  26  42 W16G32    30.01F
SCOTTSBLUFF NE   N/A    N/A N/A N/A MISG      29.94F
OMAHA NE       PTCLDY    38  30  73 SE15      29.96F
DES MOINES IA  CLOUDY    30  26  85 SE10      30.10F WCI  21
DAVENPORT IA   CLOUDY    27  22  81 SE8       30.23S WCI  19
CHICAGO IL     MOCLDY    23  18  81 W5        30.26R WCI  17
EAU CLAIRE WI  CLOUDY    26  20  77 S9        30.15S WCI  17
LA CROSSE WI   CLOUDY    28  21  75 S12       30.19F WCI  18
$$

  *****  SOME NATIONAL WEATHER *****

CITY           SKY/WX    TMP DP  RH WIND       PRES   REMARKS
LA GUARDIA NY  PTCLDY    18   3  52 NW18G24   29.90R WCI   2
RALEIGH NC     PTCLDY    28  11  48 NW6       30.06R WCI  22
ATLANTA GA     PTCLDY    35  25  66 N12       30.11R
NEW ORLEANS LA CLEAR     52  39  61 NE8       30.19R
OKLAHOMA CITY  CLEAR     50  37  61 S8        30.03F
ALBUQUERQUE NM PTCLDY    42  30  62 W3        30.24F
SALT LAKE CITY CLOUDY    44  35  70 SE3       30.17S
LOS ANGELES CA MOCLDY    58  51  78 CALM      30.16S
BOISE ID       CLOUDY    36  35  96 CALM      30.21R FOG
SEATTLE WA     DRIZZLE   47  45  93 CALM      30.28R
$$

*** WEATHER ACROSS MANITOBA...SASKATCHEWAN AND ONTARIO ***
                ***ONTARIO***

CITY           SKY/WX    TMP DP  RH WIND       PRES   REMARKS
GERALDTON      CLOUDY    23  19  86 SW7       30.06S WCI  15
THUNDER BAY    CLOUDY    25  23  93 NE5       30.12F WCI  19
SIOUX LOOKOUT  FRZ DRZL  25  23  93 S7        29.99F WCI  17
TORONTO        CLEAR      9   0  66 NW10      30.16S WCI  -6
BIG TROUT LK   FLURRIES   9   7  92 N7        30.07R WCI  -3
PICKLE LAKE    NOT AVBL
DRYDEN         MOCLDY    25  25 100 SE6       29.97F WCI  18
KENORA         MOCLDY    27  25  93 SE6       29.94F WCI  20
$$
                *** MANITOBA***

CITY           SKY/WX    TMP DP  RH WIND       PRES   REMARKS
BRANDON        FOG       27  27 100 NE18G24   29.84S VSB 1/2 WCI  13
DAUPHIN        FRZ RAIN  23  23 100 NE12      29.93F VSB 5/8 WCI  12
ISLAND LAKE    FLURRIES  10   7  85 NE8       30.10R WCI  -1
PILOT MOUND      N/A     30  30 100 E6          N/A  WCI  24
THE PAS        FLURRIES   7   3  85 NE8       30.11F WCI  -6
THOMPSON       PTCLDY   -17 -22  76 NW3       30.20R
WINNIPEG       FRZ DRZL  30  28  93 E7        29.90F FOG     WCI  23
LYNN LAKE      CLEAR    -18 -22  83 NW7       30.18R WCI -35
CHURCHILL      CRYSTALS -15 -22  70 NW24G31   30.16R BLWGSNOWWCI -44
$$
                ***SASKATCHEWAN***

CITY           SKY/WX    TMP DP  RH WIND       PRES   REMARKS
ESTEVAN        CLOUDY    28  27  93 E6        29.76F WCI  22
KINDERSLEY     CLOUDY    27  27 100 NE13      29.84R WCI  16
LLOYDMINSTER   LGT SNOW  23  21  93 N6        29.90F WCI  16
PRINCE ALBERT  LGT SNOW  16  14  93 E14       29.96F VSB 3/4 WCI   1
REGINA         MOCLDY    28  27  93 E12       29.76F WCI  18
YORKTON        CLOUDY    23  23 100 N8        29.86F WCI  14


USA.gov is the U.S. government's official web portal to all federal, state and local government web resources and services.